Location: Baili�vre
(50.0696°N, 4.2409°E)
Time: 17:50:26
(UTC+00:00)

Cosmos 1437 Rocket - Pass Details

Date: 08 August 2020
Orbit: 505 x 563 km, 81.2° (Epoch: 24 September)

Event Time Altitude Azimuth Distance (km) Brightness Sun altitude
Rises 22:03:04 0° 343° (NNW) 2,647 7.8 -20.2°
Reaches altitude 10° 22:05:16 10° 337° (NNW) 1,748 6.6 -20.3°
Maximum altitude 22:08:57 47° 263° (W) 682 3.3 -20.6°
Enters shadow 22:09:41 41° 228° (SW) 751 3.3 -20.6°
